QPF
0.01 0.01 0.00 0.00 0.00 0.00 0.00 0.00 0.00 0.00 0.00 0.00 0.00 0.01 0.01 0.02 0.03 0.04 0.04 0.03 0.04 0.07 0.10 0.11 0.09 0.06 0.03 0.01 0.00 0.00 0.00 0.00 0.00 0.00 0.00 0.00 0.00 0.00 0.00 0.00 0.00 0.00 0.00 0.00 0.00 0.00 0.00 0.00 0.00 0.00 0.00 0.00 0.00 0.00 0.00 0.00 0.00 0.00 0.00 0.00 0.00 0.00 0.00 0.00 0.00 0.00 0.00 0.00 0.00
0.01 0.01 0.00 0.00 0.00 0.01 0.01 0.01 0.00 0.00 0.00 0.00 0.00 0.00 0.00 0.01 0.02 0.03 0.03 0.03 0.02 0.02 0.04 0.06 0.06 0.05 0.03 0.01 0.00 0.00 0.00 0.00 0.00 0.00 0.00 0.00 0.00 0.00 0.00 0.00 0.00 0.00 0.00 0.00 0.00 0.00 0.00 0.00 0.00 0.00 0.00 0.00 0.00 0.00 0.00 0.00 0.00 0.00 0.00 0.00 0.00 0.00 0.00 0.00 0.00 0.00 0.00 0.00 0.00
0.01 0.01 0.01 0.01 0.01 0.01 0.01 0.01 0.01 0.00 0.00 0.00 0.00 0.00 0.00 0.00 0.01 0.02 0.02 0.02 0.01 0.01 0.02 0.02 0.03 0.03 0.02 0.01 0.00 0.00 0.00 0.00 0.00 0.00 0.00 0.00 0.00 0.00 0.00 0.00 0.00 0.00 0.00 0.00 0.00 0.00 0.00 0.00 0.00 0.00 0.00 0.00 0.00 0.00 0.00 0.00 0.00 0.00 0.00 0.00 0.00 0.00 0.00 0.00 0.00 0.00 0.00 0.00 0.00
0.01 0.01 0.01 0.01 0.01 0.01 0.01 0.01 0.01 0.00 0.00 0.00 0.00 0.00 0.00 0.00 0.01 0.02 0.02 0.01 0.01 0.01 0.01 0.01 0.01 0.01 0.01 0.01 0.00 0.00 0.00 0.00 0.00 0.00 0.00 0.00 0.00 0.00 0.00 0.00 0.00 0.00 0.00 0.00 0.00 0.00 0.00 0.00 0.00 0.00 0.00 0.00 0.00 0.00 0.00 0.00 0.00 0.00 0.00 0.00 0.00 0.00 0.00 0.00 0.00 0.00 0.00 0.00 0.00
0.01 0.01 0.01 0.00 0.00 0.01 0.01 0.01 0.00 0.00 0.00 0.00 0.00 0.00 0.00 0.00 0.02 0.02 0.02 0.02 0.01 0.01 0.01 0.00 0.00 0.00 0.00 0.00 0.00 0.00 0.00 0.00 0.00 0.00 0.00 0.00 0.00 0.00 0.00 0.00 0.00 0.00 0.00 0.00 0.00 0.00 0.00 0.00 0.00 0.00 0.00 0.00 0.00 0.00 0.00 0.00 0.00 0.00 0.00 0.00 0.00 0.00 0.00 0.00 0.00 0.00 0.00 0.00 0.00
0.01 0.01 0.01 0.00 0.00 0.00 0.00 0.00 0.00 0.00 0.00 0.00 0.00 0.00 0.00 0.00 0.01 0.02 0.02 0.02 0.01 0.01 0.00 0.00 0.00 0.00 0.00 0.00 0.00 0.00 0.00 0.00 0.00 0.00 0.00 0.00 0.00 0.00 0.00 0.00 0.00 0.00 0.00 0.00 0.00 0.00 0.00 0.00 0.00 0.00 0.00 0.00 0.00 0.00 0.00 0.00 0.00 0.00 0.00 0.00 0.00 0.00 0.00 0.00 0.00 0.00 0.00 0.00 0.00
0.01 0.01 0.01 0.00 0.00 0.00 0.00 0.01 0.00 0.00 0.01 0.01 0.01 0.01 0.01 0.00 0.01 0.01 0.01 0.00 0.00 0.00 0.00 0.00 0.00 0.00 0.00 0.00 0.00 0.00 0.00 0.00 0.00 0.00 0.00 0.00 0.00 0.00 0.00 0.00 0.00 0.00 0.00 0.00 0.00 0.00 0.00 0.00 0.00 0.00 0.00 0.00 0.00 0.00 0.00 0.00 0.00 0.00 0.00 0.00 0.00 0.00 0.00 0.00 0.00 0.00 0.00 0.00 0.00
0.01 0.01 0.01 0.00 0.00 0.00 0.01 0.01 0.01 0.01 0.01 0.01 0.01 0.01 0.01 0.00 0.00 0.00 0.00 0.00 0.00 0.00 0.00 0.01 0.00 0.00 0.00 0.01 0.01 0.01 0.00 0.00 0.00 0.00 0.00 0.00 0.00 0.00 0.00 0.00 0.00 0.00 0.00 0.00 0.00 0.00 0.00 0.00 0.00 0.00 0.00 0.00 0.00 0.00 0.00 0.00 0.00 0.00 0.00 0.00 0.00 0.00 0.00 0.00 0.00 0.00 0.00 0.00 0.00
0.01 0.01 0.01 0.00 0.00 0.00 0.01 0.01 0.01 0.02 0.02 0.02 0.02 0.02 0.02 0.01 0.01 0.01 0.00 0.00 0.00 0.00 0.00 0.01 0.00 0.00 0.00 0.01 0.01 0.01 0.01 0.01 0.01 0.01 0.00 0.00 0.00 0.00 0.00 0.00 0.00 0.00 0.00 0.00 0.00 0.00 0.00 0.00 0.00 0.00 0.00 0.00 0.00 0.00 0.00 0.00 0.00 0.00 0.00 0.00 0.00 0.00 0.00 0.00 0.00 0.00 0.00 0.00 0.00
0.01 0.01 0.01 0.00 0.00 0.00 0.00 0.01 0.01 0.01 0.01 0.02 0.02 0.02 0.02 0.02 0.02 0.02 0.01 0.01 0.01 0.01 0.01 0.01 0.00 0.00 0.00 0.01 0.02 0.02 0.02 0.01 0.01 0.01 0.01 0.00 0.00 0.00 0.00 0.00 0.00 0.00 0.00 0.00 0.00 0.00 0.00 0.00 0.00 0.00 0.00 0.00 0.00 0.00 0.00 0.00 0.00 0.00 0.00 0.00 0.00 0.00 0.00 0.00 0.00 0.00 0.00 0.00 0.00
0.00 0.00 0.00 0.00 0.00 0.00 0.00 0.00 0.01 0.01 0.01 0.01 0.01 0.01 0.01 0.01 0.01 0.01 0.02 0.02 0.02 0.02 0.01 0.01 0.00 0.00 0.00 0.01 0.01 0.02 0.02 0.02 0.01 0.01 0.00 0.00 0.00 0.00 0.00 0.00 0.00 0.00 0.00 0.00 0.00 0.00 0.00 0.00 0.00 0.00 0.00 0.00 0.00 0.00 0.00 0.00 0.00 0.00 0.00 0.00 0.00 0.00 0.00 0.00 0.00 0.00 0.00 0.00 0.00
0.00 0.00 0.00 0.00 0.00 0.00 0.00 0.00 0.01 0.01 0.01 0.01 0.01 0.01 0.01 0.01 0.01 0.01 0.02 0.02 0.02 0.02 0.01 0.01 0.01 0.00 0.00 0.00 0.01 0.01 0.01 0.01 0.00 0.00 0.00 0.00 0.00 0.00 0.00 0.00 0.00 0.00 0.00 0.00 0.00 0.00 0.00 0.00 0.00 0.00 0.00 0.00 0.00 0.00 0.00 0.00 0.00 0.00 0.00 0.00 0.00 0.00 0.00 0.00 0.00 0.00 0.00 0.00 0.00
0.00 0.00 0.00 0.00 0.00 0.00 0.00 0.00 0.01 0.01 0.01 0.01 0.01 0.01 0.01 0.01 0.01 0.01 0.01 0.01 0.01 0.01 0.01 0.01 0.00 0.00 0.00 0.00 0.00 0.00 0.00 0.00 0.00 0.00 0.00 0.00 0.00 0.00 0.00 0.00 0.00 0.00 0.00 0.00 0.00 0.00 0.00 0.00 0.00 0.00 0.00 0.00 0.00 0.00 0.00 0.00 0.00 0.00 0.00 0.00 0.00 0.00 0.00 0.00 0.00 0.00 0.00 0.00 0.00
0.00 0.00 0.00 0.00 0.00 0.00 0.00 0.00 0.00 0.01 0.01 0.01 0.01 0.01 0.01 0.01 0.00 0.00 0.00 0.00 0.00 0.00 0.00 0.00 0.00 0.00 0.00 0.00 0.00 0.00 0.00 0.00 0.00 0.00 0.00 0.00 0.00 0.00 0.00 0.00 0.00 0.00 0.00 0.00 0.00 0.00 0.00 0.00 0.00 0.00 0.00 0.00 0.00 0.00 0.00 0.00 0.00 0.00 0.00 0.00 0.00 0.00 0.00 0.00 0.00 0.00 0.00 0.00 0.00
0.00 0.00 0.00 0.00 0.00 0.00 0.00 0.00 0.00 0.00 0.00 0.00 0.00 0.00 0.00 0.00 0.00 0.00 0.00 0.00 0.00 0.00 0.00 0.00 0.00 0.00 0.00 0.00 0.00 0.00 0.00 0.00 0.00 0.00 0.00 0.00 0.00 0.00 0.00 0.00 0.00 0.00 0.00 0.00 0.00 0.00 0.00 0.00 0.00 0.00 0.00 0.00 0.00 0.00 0.00 0.00 0.00 0.00 0.00 0.00 0.00 0.00 0.00 0.00 0.00 0.00 0.00 0.00 0.00
0.00 0.00 0.00 0.00 0.00 0.00 0.00 0.00 0.00 0.00 0.00 0.00 0.00 0.00 0.00 0.00 0.00 0.00 0.00 0.00 0.00 0.00 0.00 0.00 0.00 0.00 0.00 0.00 0.00 0.00 0.00 0.00 0.00 0.00 0.00 0.00 0.00 0.00 0.00 0.00 0.00 0.00 0.00 0.00 0.00 0.00 0.00 0.00 0.00 0.00 0.00 0.00 0.00 0.00 0.00 0.00 0.00 0.00 0.00 0.00 0.00 0.00 0.00 0.00 0.00 0.00 0.00 0.00 0.00
0.00 0.00 0.00 0.00 0.00 0.00 0.00 0.00 0.00 0.00 0.00 0.00 0.00 0.00 0.00 0.00 0.00 0.00 0.00 0.00 0.00 0.00 0.00 0.00 0.00 0.00 0.00 0.00 0.00 0.00 0.00 0.00 0.00 0.00 0.00 0.00 0.00 0.00 0.00 0.00 0.00 0.00 0.00 0.00 0.00 0.00 0.00 0.00 0.00 0.00 0.00 0.00 0.00 0.00 0.00 0.00 0.00 0.00 0.00 0.00 0.00 0.00 0.00 0.00 0.00 0.00 0.00 0.00 0.00
0.00 0.00 0.00 0.00 0.00 0.00 0.00 0.00 0.00 0.00 0.00 0.00 0.00 0.00 0.00 0.00 0.00 0.00 0.00 0.00 0.00 0.00 0.00 0.00 0.00 0.00 0.00 0.00 0.00 0.00 0.00 0.00 0.00 0.00 0.00 0.00 0.00 0.00 0.00 0.00 0.00 0.00 0.00 0.00 0.00 0.00 0.00 0.00 0.00 0.00 0.00 0.00 0.00 0.00 0.00 0.00 0.00 0.00 0.00 0.00 0.00 0.00 0.00 0.00 0.00 0.00 0.00 0.00 0.00
0.00 0.00 0.00 0.00 0.00 0.00 0.00 0.00 0.00 0.00 0.00 0.00 0.00 0.00 0.00 0.00 0.00 0.00 0.00 0.00 0.00 0.00 0.00 0.00 0.00 0.00 0.00 0.00 0.00 0.00 0.00 0.00 0.00 0.00 0.00 0.00 0.00 0.00 0.00 0.00 0.00 0.00 0.00 0.00 0.00 0.00 0.00 0.00 0.00 0.00 0.00 0.00 0.00 0.00 0.00 0.00 0.00 0.00 0.00 0.00 0.00 0.00 0.00 0.00 0.00 0.00 0.00 0.00 0.00
0.00 0.00 0.00 0.00 0.00 0.00 0.00 0.00 0.00 0.00 0.00 0.00 0.00 0.00 0.00 0.00 0.00 0.00 0.00 0.00 0.00 0.00 0.00 0.00 0.00 0.00 0.00 0.00 0.00 0.00 0.00 0.00 0.00 0.00 0.00 0.00 0.00 0.00 0.00 0.00 0.00 0.00 0.00 0.00 0.00 0.00 0.00 0.00 0.00 0.00 0.00 0.00 0.00 0.00 0.00 0.00 0.00 0.00 0.00 0.00 0.00 0.00 0.00 0.00 0.00 0.00 0.00 0.00 0.00
0.00 0.00 0.00 0.00 0.00 0.00 0.00 0.00 0.00 0.00 0.00 0.00 0.00 0.00 0.00 0.00 0.00 0.00 0.00 0.00 0.00 0.00 0.00 0.00 0.00 0.00 0.00 0.00 0.00 0.00 0.00 0.00 0.00 0.00 0.00 0.00 0.00 0.00 0.00 0.00 0.00 0.00 0.00 0.00 0.00 0.00 0.00 0.00 0.00 0.00 0.00 0.00 0.00 0.00 0.00 0.00 0.00 0.00 0.00 0.00 0.00 0.00 0.00 0.00 0.00 0.00 0.00 0.00 0.00
0.00 0.00 0.00 0.00 0.00 0.00 0.00 0.00 0.00 0.00 0.00 0.00 0.00 0.00 0.00 0.00 0.00 0.00 0.00 0.00 0.00 0.00 0.00 0.00 0.00 0.00 0.00 0.00 0.00 0.00 0.00 0.00 0.00 0.00 0.00 0.00 0.00 0.00 0.00 0.00 0.00 0.00 0.00 0.00 0.00 0.00 0.00 0.00 0.00 0.00 0.00 0.00 0.00 0.00 0.00 0.00 0.00 0.00 0.00 0.00 0.00 0.00 0.00 0.00 0.00 0.00 0.00 0.00 0.00
0.00 0.00 0.00 0.00 0.00 0.00 0.00 0.00 0.00 0.00 0.00 0.00 0.00 0.00 0.00 0.00 0.00 0.00 0.00 0.00 0.00 0.00 0.00 0.00 0.00 0.00 0.00 0.00 0.00 0.00 0.00 0.00 0.00 0.00 0.00 0.00 0.00 0.00 0.00 0.00 0.00 0.00 0.00 0.00 0.00 0.00 0.00 0.00 0.00 0.00 0.00 0.00 0.00 0.00 0.00 0.00 0.00 0.00 0.00 0.00 0.00 0.00 0.00 0.00 0.00 0.00 0.00 0.00 0.00
0.00 0.00 0.00 0.00 0.00 0.00 0.00 0.00 0.00 0.00 0.00 0.00 0.00 0.00 0.00 0.00 0.00 0.00 0.00 0.00 0.00 0.00 0.00 0.00 0.00 0.00 0.00 0.00 0.00 0.00 0.00 0.00 0.00 0.00 0.00 0.00 0.00 0.00 0.00 0.00 0.00 0.00 0.00 0.00 0.00 0.00 0.00 0.00 0.00 0.00 0.00 0.00 0.00 0.00 0.00 0.00 0.00 0.00 0.00 0.00 0.00 0.00 0.00 0.00 0.00 0.00 0.00 0.00 0.00
0.00 0.00 0.00 0.00 0.00 0.00 0.00 0.00 0.00 0.00 0.00 0.00 0.00 0.00 0.00 0.00 0.00 0.00 0.00 0.00 0.00 0.00 0.00 0.00 0.00 0.00 0.00 0.00 0.00 0.00 0.00 0.00 0.00 0.00 0.00 0.00 0.00 0.00 0.00 0.00 0.00 0.00 0.00 0.00 0.00 0.00 0.00 0.00 0.00 0.00 0.00 0.00 0.00 0.00 0.00 0.00 0.00 0.00 0.00 0.00 0.00 0.00 0.00 0.00 0.00 0.00 0.00 0.00 0.00
0.00 0.00 0.00 0.00 0.00 0.00 0.00 0.00 0.00 0.00 0.00 0.00 0.00 0.00 0.00 0.00 0.00 0.00 0.00 0.00 0.00 0.00 0.00 0.00 0.00 0.00 0.00 0.00 0.00 0.00 0.00 0.00 0.00 0.00 0.00 0.00 0.00 0.00 0.00 0.00 0.00 0.00 0.00 0.00 0.00 0.00 0.00 0.00 0.00 0.00 0.00 0.00 0.00 0.00 0.00 0.00 0.00 0.00 0.00 0.00 0.00 0.00 0.00 0.00 0.00 0.00 0.00 0.00 0.00
0.00 0.00 0.00 0.00 0.00 0.00 0.00 0.00 0.00 0.00 0.00 0.00 0.00 0.00 0.00 0.00 0.00 0.00 0.00 0.00 0.00 0.00 0.00 0.00 0.00 0.00 0.00 0.00 0.00 0.00 0.00 0.00 0.00 0.00 0.00 0.00 0.00 0.00 0.00 0.00 0.00 0.00 0.00 0.00 0.00 0.00 0.00 0.00 0.00 0.00 0.00 0.00 0.00 0.00 0.00 0.00 0.00 0.00 0.00 0.00 0.00 0.00 0.00 0.00 0.00 0.00 0.00 0.00 0.01
0.00 0.00 0.00 0.00 0.00 0.00 0.00 0.00 0.00 0.00 0.00 0.00 0.00 0.00 0.00 0.00 0.00 0.00 0.00 0.00 0.00 0.00 0.00 0.00 0.00 0.00 0.00 0.00 0.00 0.00 0.00 0.00 0.00 0.00 0.00 0.00 0.00 0.00 0.00 0.00 0.00 0.00 0.00 0.00 0.00 0.00 0.00 0.00 0.00 0.00 0.00 0.00 0.00 0.00 0.00 0.00 0.00 0.00 0.00 0.00 0.00 0.00 0.00 0.00 0.00 0.00 0.00 0.00 0.00
0.00 0.00 0.00 0.00 0.00 0.00 0.00 0.00 0.00 0.00 0.00 0.00 0.00 0.00 0.00 0.00 0.00 0.00 0.00 0.00 0.00 0.00 0.00 0.00 0.00 0.00 0.00 0.00 0.00 0.00 0.00 0.00 0.00 0.00 0.00 0.00 0.00 0.00 0.00 0.00 0.00 0.00 0.00 0.00 0.00 0.00 0.00 0.00 0.00 0.00 0.00 0.00 0.00 0.00 0.00 0.00 0.00 0.00 0.00 0.00 0.00 0.00 0.00 0.00 0.00 0.00 0.00 0.00 0.00
0.00 0.00 0.00 0.00 0.00 0.00 0.00 0.00 0.00 0.00 0.00 0.00 0.00 0.00 0.00 0.00 0.00 0.00 0.00 0.00 0.00 0.00 0.00 0.00 0.00 0.00 0.00 0.00 0.00 0.00 0.00 0.00 0.00 0.00 0.00 0.00 0.00 0.00 0.00 0.00 0.00 0.00 0.00 0.00 0.00 0.00 0.00 0.00 0.00 0.01 0.00 0.00 0.00 0.00 0.00 0.00 0.00 0.00 0.00 0.00 0.00 0.00 0.00 0.00 0.00 0.00 0.00 0.00 0.00
0.00 0.00 0.00 0.00 0.00 0.00 0.00 0.00 0.00 0.00 0.00 0.00 0.00 0.00 0.00 0.00 0.00 0.00 0.00 0.00 0.00 0.00 0.00 0.00 0.00 0.00 0.00 0.00 0.00 0.00 0.00 0.00 0.00 0.00 0.00 0.00 0.00 0.00 0.00 0.00 0.00 0.00 0.00 0.00 0.00 0.00 0.00 0.00 0.00 0.01 0.01 0.01 0.00 0.00 0.00 0.00 0.00 0.00 0.00 0.00 0.00 0.00 0.00 0.00 0.00 0.00 0.00 0.00 0.00
0.00 0.00 0.00 0.00 0.00 0.00 0.00 0.00 0.00 0.00 0.00 0.00 0.00 0.00 0.00 0.00 0.00 0.00 0.00 0.00 0.00 0.00 0.00 0.00 0.00 0.00 0.00 0.00 0.00 0.00 0.00 0.00 0.00 0.00 0.00 0.00 0.00 0.00 0.00 0.00 0.00 0.00 0.00 0.00 0.00 0.00 0.00 0.00 0.00 0.00 0.01 0.01 0.00 0.00 0.00 0.01 0.00 0.00 0.00 0.02 0.01 0.00 0.00 0.00 0.00 0.00 0.00 0.00 0.01
0.00 0.00 0.00 0.00 0.00 0.00 0.00 0.00 0.00 0.00 0.00 0.00 0.00 0.00 0.00 0.00 0.00 0.00 0.00 0.00 0.00 0.00 0.00 0.00 0.00 0.00 0.00 0.00 0.00 0.00 0.00 0.00 0.00 0.00 0.00 0.00 0.00 0.00 0.00 0.00 0.00 0.00 0.00 0.00 0.00 0.00 0.00 0.00 0.00 0.00 0.00 0.00 0.00 0.00 0.01 0.01 0.01 0.00 0.00 0.00 0.00 0.00 0.00 0.00 0.00 0.00 0.00 0.01 0.01
0.00 0.00 0.00 0.00 0.00 0.00 0.00 0.00 0.00 0.00 0.00 0.00 0.00 0.00 0.00 0.00 0.00 0.00 0.00 0.00 0.00 0.00 0.00 0.00 0.00 0.00 0.00 0.00 0.00 0.00 0.00 0.00 0.00 0.00 0.00 0.00 0.00 0.00 0.00 0.00 0.00 0.00 0.00 0.00 0.00 0.00 0.00 0.00 0.00 0.00 0.00 0.00 0.01 0.01 0.01 0.01 0.01 0.00 0.00 0.00 0.00 0.00 0.00 0.00 0.00 0.00 0.00 0.01 0.02
0.00 0.00 0.00 0.00 0.00 0.00 0.00 0.00 0.00 0.00 0.00 0.00 0.00 0.00 0.00 0.00 0.00 0.00 0.00 0.00 0.00 0.00 0.00 0.00 0.00 0.00 0.00 0.00 0.00 0.00 0.00 0.00 0.00 0.00 0.00 0.00 0.00 0.00 0.00 0.00 0.00 0.00 0.00 0.00 0.00 0.00 0.00 0.00 0.00 0.00 0.00 0.00 0.00 0.00 0.00 0.00 0.00 0.00 0.00 0.00 0.00 0.00 0.00 0.00 0.00 0.01 0.01 0.02 0.03
0.00 0.00 0.00 0.00 0.00 0.00 0.00 0.00 0.00 0.00 0.00 0.00 0.00 0.00 0.00 0.00 0.00 0.00 0.00 0.00 0.00 0.00 0.00 0.00 0.00 0.00 0.00 0.00 0.00 0.00 0.00 0.00 0.00 0.00 0.00 0.00 0.00 0.00 0.00 0.01 0.00 0.00 0.00 0.00 0.00 0.00 0.00 0.00 0.00 0.00 0.00 0.00 0.00 0.00 0.00 0.00 0.00 0.00 0.00 0.00 0.00 0.00 0.01 0.01 0.01 0.01 0.02 0.03 0.03
0.00 0.00 0.00 0.00 0.00 0.00 0.00 0.00 0.00 0.00 0.00 0.00 0.00 0.00 0.00 0.00 0.00 0.00 0.00 0.00 0.00 0.00 0.00 0.00 0.00 0.00 0.00 0.00 0.02 0.04 0.04 0.04 0.05 0.05 0.04 0.02 0.01 0.02 0.03 0.02 0.01 0.00 0.00 0.00 0.00 0.00 0.00 0.00 0.00 0.00 0.00 0.00 0.00 0.00 0.00 0.00 0.00 0.00 0.01 0.02 0.02 0.02 0.02 0.02 0.02 0.02 0.02 0.03 0.04
0.00 0.00 0.00 0.00 0.00 0.00 0.00 0.00 0.00 0.00 0.00 0.00 0.00 0.00 0.00 0.00 0.00 0.00 0.00 0.00 0.00 0.00 0.00 0.00 0.00 0.02 0.03 0.04 0.07 0.08 0.09 0.08 0.09 0.09 0.08 0.06 0.03 0.04 0.05 0.00 0.00 0.01 0.00 0.00 0.01 0.01 0.01 0.02 0.01 0.01 0.00 0.00 0.00 0.00 0.00 0.02 0.02 0.03 0.05 0.06 0.06 0.05 0.04 0.03 0.03 0.03 0.03 0.06 0.08
0.00 0.00 0.00 0.00 0.00 0.00 0.00 0.00 0.00 0.00 0.00 0.00 0.00 0.00 0.00 0.00 0.00 0.00 0.01 0.01 0.02 0.02 0.03 0.06 0.05 0.05 0.06 0.06 0.04 0.02 0.01 0.00 0.00 0.00 0.01 0.03 0.01 0.00 0.00 0.00 0.00 0.01 0.01 0.01 0.02 0.02 0.03 0.03 0.02 0.01 0.01 0.01 0.01 0.01 0.04 0.10 0.10 0.11 0.11 0.10 0.08 0.07 0.05 0.04 0.04 0.05 0.08 0.11 0.12
0.00 0.00 0.00 0.00 0.00 0.00 0.00 0.00 0.00 0.00 0.00 0.00 0.00 0.00 0.00 0.00 0.00 0.00 0.01 0.03 0.03 0.04 0.05 0.08 0.06 0.03 0.01 0.00 0.00 0.00 0.00 0.00 0.00 0.00 0.00 0.00 0.00 0.00 0.00 0.00 0.01 0.01 0.01 0.01 0.01 0.02 0.02 0.03 0.02 0.02 0.02 0.03 0.05 0.11 0.17 0.22 0.22 0.20 0.17 0.13 0.11 0.09 0.07 0.06 0.07 0.09 0.11 0.11 0.11
0.00 0.00 0.00 0.00 0.00 0.00 0.00 0.00 0.00 0.00 0.00 0.00 0.00 0.00 0.01 0.03 0.01 0.02 0.04 0.05 0.04 0.02 0.01 0.01 0.00 0.00 0.00 0.00 0.00 0.00 0.00 0.00 0.00 0.00 0.00 0.01 0.01 0.01 0.01 0.01 0.01 0.01 0.01 0.01 0.01 0.01 0.02 0.03 0.05 0.08 0.11 0.14 0.18 0.25 0.31 0.29 0.26 0.21 0.17 0.13 0.12 0.11 0.09 0.09 0.09 0.09 0.10 0.09 0.09
MSLP
1006.52 1006.64 1006.84 1007.04 1007.16 1007.36 1007.52 1007.72 1007.92 1008.08 1008.28 1008.40 1008.64 1008.92 1009.20 1009.48 1009.64 1009.80 1009.92 1010.04 1010.16 1010.40 1010.64 1010.92 1011.08 1011.20 1011.28 1011.36 1011.40 1011.48 1011.48 1011.52 1011.52 1011.60 1011.72 1011.84 1012.04 1012.24 1012.36 1012.60 1012.72 1012.92 1013.08 1013.20 1013.36 1013.52 1013.72 1013.84 1013.96 1014.16 1014.36 1014.48 1014.60 1014.72 1014.84 1014.92 1015.04 1015.20 1015.28 1015.40 1015.48 1015.60 1015.80 1015.96 1016.08 1016.24 1016.40 1016.48 1016.60
1006.40 1006.60 1006.80 1006.96 1007.08 1007.28 1007.48 1007.72 1007.84 1007.96 1008.16 1008.28 1008.48 1008.72 1009.04 1009.28 1009.52 1009.72 1009.84 1009.92 1009.96 1010.16 1010.48 1010.72 1010.92 1011.04 1011.08 1011.16 1011.16 1011.20 1011.28 1011.28 1011.36 1011.40 1011.60 1011.72 1011.84 1011.96 1012.16 1012.36 1012.52 1012.72 1012.84 1012.96 1013.20 1013.40 1013.52 1013.64 1013.84 1014.04 1014.24 1014.36 1014.48 1014.64 1014.72 1014.80 1014.92 1015.04 1015.20 1015.36 1015.40 1015.52 1015.72 1015.84 1015.92 1016.04 1016.24 1016.28 1016.36
1006.28 1006.48 1006.64 1006.92 1007.04 1007.20 1007.40 1007.60 1007.72 1007.92 1008.04 1008.24 1008.40 1008.60 1008.84 1009.08 1009.36 1009.52 1009.72 1009.80 1009.84 1010.04 1010.24 1010.48 1010.64 1010.80 1010.84 1010.92 1010.92 1010.92 1011.04 1011.08 1011.16 1011.20 1011.40 1011.60 1011.64 1011.80 1011.96 1012.16 1012.28 1012.40 1012.60 1012.80 1012.96 1013.16 1013.36 1013.52 1013.72 1013.84 1014.04 1014.24 1014.36 1014.48 1014.52 1014.64 1014.72 1014.92 1015.04 1015.16 1015.20 1015.40 1015.60 1015.72 1015.80 1015.84 1016.04 1016.16 1016.24
1006.08 1006.36 1006.60 1006.72 1006.92 1007.04 1007.20 1007.40 1007.60 1007.80 1007.96 1008.16 1008.36 1008.60 1008.80 1008.96 1009.16 1009.40 1009.60 1009.72 1009.80 1009.92 1010.08 1010.24 1010.36 1010.48 1010.60 1010.72 1010.72 1010.72 1010.72 1010.84 1010.96 1011.08 1011.16 1011.36 1011.48 1011.60 1011.80 1011.92 1012.08 1012.24 1012.40 1012.60 1012.72 1012.92 1013.08 1013.36 1013.52 1013.64 1013.84 1014.04 1014.24 1014.36 1014.40 1014.52 1014.60 1014.72 1014.84 1014.96 1015.08 1015.20 1015.40 1015.52 1015.60 1015.72 1015.84 1015.96 1016.04
1006.04 1006.24 1006.36 1006.52 1006.72 1006.92 1007.08 1007.28 1007.48 1007.64 1007.84 1008.08 1008.28 1008.48 1008.64 1008.84 1009.04 1009.28 1009.48 1009.64 1009.64 1009.80 1009.84 1010.04 1010.16 1010.28 1010.40 1010.52 1010.52 1010.52 1010.60 1010.72 1010.92 1010.96 1011.04 1011.20 1011.28 1011.40 1011.52 1011.64 1011.84 1012.04 1012.16 1012.36 1012.52 1012.72 1012.92 1013.16 1013.36 1013.52 1013.64 1013.80 1013.92 1014.04 1014.08 1014.28 1014.48 1014.60 1014.64 1014.84 1014.96 1015.08 1015.20 1015.40 1015.48 1015.60 1015.72 1015.84 1015.84
1005.84 1006.08 1006.24 1006.40 1006.60 1006.72 1006.96 1007.20 1007.36 1007.48 1007.72 1007.96 1008.16 1008.36 1008.48 1008.72 1008.92 1009.16 1009.28 1009.40 1009.48 1009.60 1009.80 1009.96 1010.08 1010.24 1010.36 1010.52 1010.52 1010.48 1010.52 1010.64 1010.80 1010.92 1010.96 1011.04 1011.16 1011.28 1011.36 1011.52 1011.64 1011.84 1011.96 1012.16 1012.36 1012.48 1012.72 1012.96 1013.16 1013.28 1013.48 1013.64 1013.72 1013.80 1013.92 1014.08 1014.28 1014.40 1014.52 1014.72 1014.84 1014.96 1015.04 1015.20 1015.28 1015.40 1015.52 1015.72 1015.80
1005.64 1005.92 1006.08 1006.24 1006.48 1006.64 1006.92 1007.08 1007.28 1007.40 1007.64 1007.80 1007.96 1008.16 1008.28 1008.48 1008.64 1008.92 1009.04 1009.08 1009.28 1009.52 1009.80 1009.96 1010.08 1010.24 1010.36 1010.48 1010.52 1010.52 1010.52 1010.60 1010.72 1010.84 1010.92 1010.96 1010.96 1011.08 1011.20 1011.28 1011.48 1011.60 1011.80 1011.96 1012.16 1012.40 1012.52 1012.64 1012.92 1013.16 1013.28 1013.40 1013.52 1013.60 1013.72 1013.84 1014.04 1014.24 1014.48 1014.60 1014.72 1014.84 1014.96 1015.08 1015.16 1015.28 1015.48 1015.52 1015.64
1005.52 1005.72 1005.92 1006.08 1006.36 1006.52 1006.72 1006.92 1007.16 1007.36 1007.52 1007.64 1007.84 1007.96 1008.08 1008.24 1008.48 1008.64 1008.84 1009.04 1009.20 1009.40 1009.64 1009.84 1010.04 1010.16 1010.28 1010.36 1010.48 1010.48 1010.52 1010.60 1010.80 1010.92 1010.96 1011.04 1011.04 1011.04 1011.04 1011.08 1011.28 1011.40 1011.60 1011.80 1012.04 1012.28 1012.40 1012.52 1012.72 1012.92 1013.08 1013.20 1013.40 1013.48 1013.60 1013.72 1013.92 1014.08 1014.28 1014.40 1014.60 1014.64 1014.80 1014.84 1014.96 1015.16 1015.28 1015.36 1015.48
1005.40 1005.64 1005.84 1006.04 1006.24 1006.40 1006.60 1006.80 1006.96 1007.16 1007.36 1007.48 1007.64 1007.80 1007.96 1008.08 1008.36 1008.52 1008.72 1008.92 1009.04 1009.28 1009.52 1009.72 1009.92 1010.04 1010.16 1010.24 1010.36 1010.40 1010.48 1010.60 1010.80 1010.96 1011.08 1011.20 1011.16 1011.08 1011.04 1011.04 1011.16 1011.28 1011.40 1011.64 1011.92 1012.08 1012.28 1012.40 1012.60 1012.72 1012.84 1012.96 1013.16 1013.28 1013.40 1013.60 1013.80 1013.96 1014.16 1014.24 1014.40 1014.52 1014.64 1014.64 1014.80 1014.92 1015.04 1015.16 1015.28
1005.28 1005.52 1005.72 1005.92 1006.08 1006.28 1006.48 1006.64 1006.84 1007.04 1007.16 1007.36 1007.52 1007.72 1007.84 1008.04 1008.24 1008.40 1008.52 1008.72 1008.92 1009.16 1009.40 1009.60 1009.80 1009.92 1010.04 1010.16 1010.28 1010.40 1010.48 1010.64 1010.84 1010.96 1011.08 1011.08 1011.16 1011.08 1010.96 1010.96 1011.04 1011.08 1011.20 1011.48 1011.72 1011.96 1012.16 1012.36 1012.48 1012.60 1012.72 1012.80 1012.92 1013.08 1013.28 1013.48 1013.64 1013.84 1013.96 1014.08 1014.24 1014.40 1014.52 1014.52 1014.64 1014.72 1014.84 1014.92 1015.04
1005.08 1005.28 1005.52 1005.80 1005.96 1006.16 1006.36 1006.52 1006.80 1006.96 1007.08 1007.28 1007.48 1007.64 1007.80 1007.96 1008.16 1008.28 1008.48 1008.72 1008.92 1009.16 1009.36 1009.52 1009.72 1009.84 1009.92 1010.04 1010.24 1010.40 1010.48 1010.60 1010.80 1010.92 1011.04 1011.04 1011.04 1011.04 1010.96 1010.96 1010.96 1010.96 1011.04 1011.20 1011.40 1011.72 1011.96 1012.16 1012.36 1012.40 1012.52 1012.64 1012.80 1012.96 1013.16 1013.36 1013.52 1013.72 1013.84 1013.92 1014.04 1014.24 1014.36 1014.40 1014.48 1014.60 1014.64 1014.72 1014.80
1004.92 1005.16 1005.36 1005.52 1005.84 1006.08 1006.28 1006.40 1006.64 1006.84 1007.04 1007.20 1007.40 1007.60 1007.72 1007.92 1008.04 1008.24 1008.48 1008.72 1008.92 1009.08 1009.20 1009.48 1009.64 1009.72 1009.84 1009.96 1010.16 1010.36 1010.48 1010.52 1010.64 1010.80 1010.84 1010.92 1010.92 1010.92 1010.84 1010.92 1010.92 1010.92 1010.92 1010.96 1011.20 1011.52 1011.84 1012.04 1012.24 1012.36 1012.48 1012.52 1012.72 1012.84 1013.04 1013.20 1013.40 1013.52 1013.64 1013.80 1013.84 1014.04 1014.16 1014.24 1014.28 1014.36 1014.40 1014.52 1014.60
1004.84 1005.04 1005.20 1005.48 1005.72 1005.92 1006.08 1006.28 1006.52 1006.72 1006.92 1007.08 1007.28 1007.48 1007.64 1007.84 1008.04 1008.24 1008.40 1008.64 1008.84 1009.04 1009.16 1009.40 1009.52 1009.60 1009.72 1009.80 1009.96 1010.16 1010.28 1010.40 1010.48 1010.52 1010.60 1010.64 1010.72 1010.80 1010.80 1010.84 1010.84 1010.84 1010.84 1010.92 1011.04 1011.28 1011.64 1011.96 1012.08 1012.28 1012.40 1012.48 1012.52 1012.64 1012.84 1013.04 1013.20 1013.36 1013.48 1013.64 1013.72 1013.84 1013.96 1013.96 1014.04 1014.16 1014.24 1014.36 1014.40
1004.64 1004.84 1005.08 1005.28 1005.52 1005.80 1005.96 1006.16 1006.28 1006.52 1006.80 1006.96 1007.16 1007.28 1007.48 1007.80 1007.96 1008.08 1008.28 1008.48 1008.72 1008.92 1009.04 1009.16 1009.36 1009.40 1009.48 1009.52 1009.64 1009.84 1010.04 1010.16 1010.28 1010.36 1010.40 1010.40 1010.52 1010.60 1010.72 1010.80 1010.84 1010.80 1010.84 1010.84 1010.92 1011.08 1011.40 1011.72 1011.92 1012.08 1012.24 1012.36 1012.40 1012.52 1012.72 1012.84 1013.04 1013.16 1013.28 1013.48 1013.52 1013.60 1013.64 1013.80 1013.84 1013.96 1014.08 1014.24 1014.24
1004.48 1004.64 1004.92 1005.16 1005.36 1005.60 1005.80 1005.92 1006.08 1006.36 1006.52 1006.72 1006.92 1007.16 1007.36 1007.52 1007.80 1007.96 1008.16 1008.28 1008.48 1008.64 1008.80 1008.92 1009.04 1009.16 1009.28 1009.28 1009.40 1009.52 1009.64 1009.92 1010.04 1010.16 1010.24 1010.28 1010.36 1010.48 1010.60 1010.72 1010.80 1010.84 1010.84 1010.92 1010.92 1010.96 1011.16 1011.40 1011.60 1011.80 1011.96 1012.08 1012.24 1012.40 1012.52 1012.64 1012.84 1012.96 1013.08 1013.20 1013.36 1013.40 1013.48 1013.52 1013.64 1013.80 1013.92 1013.96 1014.04
1004.28 1004.52 1004.72 1004.92 1005.16 1005.40 1005.60 1005.72 1005.92 1006.08 1006.28 1006.52 1006.72 1006.92 1007.16 1007.36 1007.60 1007.80 1007.96 1008.08 1008.28 1008.48 1008.60 1008.64 1008.80 1008.96 1009.08 1009.16 1009.20 1009.28 1009.40 1009.60 1009.80 1009.92 1010.04 1010.08 1010.24 1010.28 1010.40 1010.60 1010.80 1010.84 1010.92 1010.92 1010.92 1010.96 1011.04 1011.20 1011.36 1011.52 1011.72 1011.92 1012.08 1012.24 1012.36 1012.52 1012.64 1012.80 1012.92 1013.04 1013.08 1013.16 1013.20 1013.28 1013.40 1013.52 1013.60 1013.72 1013.80
1004.08 1004.28 1004.52 1004.64 1004.92 1005.16 1005.36 1005.48 1005.60 1005.80 1006.04 1006.28 1006.48 1006.64 1006.84 1007.08 1007.28 1007.52 1007.80 1007.92 1008.08 1008.24 1008.36 1008.48 1008.60 1008.72 1008.84 1008.96 1009.08 1009.16 1009.28 1009.40 1009.52 1009.64 1009.80 1009.92 1010.04 1010.08 1010.24 1010.40 1010.60 1010.72 1010.80 1010.84 1010.92 1010.96 1010.96 1011.08 1011.20 1011.36 1011.48 1011.72 1011.84 1011.96 1012.16 1012.28 1012.40 1012.52 1012.72 1012.80 1012.92 1012.96 1012.96 1013.08 1013.16 1013.28 1013.40 1013.52 1013.60
1003.84 1004.04 1004.24 1004.36 1004.60 1004.84 1005.08 1005.20 1005.36 1005.52 1005.80 1005.96 1006.24 1006.40 1006.52 1006.80 1007.04 1007.28 1007.48 1007.72 1007.80 1007.96 1008.08 1008.24 1008.36 1008.48 1008.64 1008.80 1008.92 1009.04 1009.16 1009.20 1009.28 1009.40 1009.60 1009.72 1009.84 1009.96 1010.08 1010.16 1010.28 1010.40 1010.60 1010.64 1010.72 1010.80 1010.84 1010.96 1011.08 1011.20 1011.36 1011.48 1011.64 1011.80 1011.84 1011.96 1012.16 1012.36 1012.48 1012.60 1012.72 1012.80 1012.84 1012.96 1012.96 1013.08 1013.20 1013.36 1013.40
1003.60 1003.80 1003.96 1004.16 1004.40 1004.60 1004.80 1005.04 1005.16 1005.36 1005.48 1005.72 1005.96 1006.16 1006.28 1006.48 1006.72 1006.92 1007.16 1007.40 1007.52 1007.64 1007.84 1008.04 1008.16 1008.28 1008.40 1008.52 1008.72 1008.84 1008.96 1009.04 1009.16 1009.28 1009.40 1009.52 1009.64 1009.80 1009.92 1009.96 1010.16 1010.24 1010.36 1010.40 1010.48 1010.60 1010.72 1010.84 1010.96 1011.08 1011.20 1011.36 1011.48 1011.60 1011.64 1011.80 1011.92 1012.08 1012.24 1012.36 1012.48 1012.60 1012.64 1012.80 1012.84 1012.92 1012.96 1013.08 1013.08
1003.36 1003.52 1003.72 1003.92 1004.16 1004.40 1004.60 1004.80 1004.92 1005.04 1005.20 1005.52 1005.72 1005.84 1006.04 1006.16 1006.40 1006.60 1006.84 1007.08 1007.28 1007.40 1007.52 1007.80 1007.92 1008.04 1008.16 1008.28 1008.48 1008.64 1008.80 1008.92 1009.04 1009.08 1009.20 1009.36 1009.48 1009.60 1009.72 1009.84 1010.04 1010.08 1010.16 1010.28 1010.36 1010.48 1010.52 1010.64 1010.80 1010.92 1011.08 1011.20 1011.36 1011.40 1011.52 1011.64 1011.80 1011.92 1012.04 1012.16 1012.28 1012.40 1012.48 1012.52 1012.60 1012.64 1012.64 1012.72 1012.84
1003.08 1003.28 1003.48 1003.72 1003.96 1004.24 1004.36 1004.52 1004.72 1004.84 1005.04 1005.28 1005.48 1005.64 1005.80 1005.96 1006.16 1006.36 1006.52 1006.72 1006.92 1007.08 1007.36 1007.48 1007.60 1007.80 1007.92 1008.08 1008.24 1008.40 1008.60 1008.72 1008.84 1008.96 1009.08 1009.16 1009.28 1009.40 1009.52 1009.72 1009.92 1010.04 1010.08 1010.16 1010.28 1010.36 1010.40 1010.48 1010.64 1010.72 1010.92 1011.08 1011.20 1011.36 1011.48 1011.60 1011.72 1011.84 1011.96 1012.04 1012.08 1012.16 1012.24 1012.28 1012.36 1012.36 1012.40 1012.52 1012.60
1002.84 1003.04 1003.28 1003.60 1003.80 1003.96 1004.16 1004.28 1004.48 1004.64 1004.84 1005.04 1005.20 1005.40 1005.60 1005.80 1005.92 1006.04 1006.24 1006.48 1006.64 1006.92 1007.08 1007.20 1007.36 1007.52 1007.72 1007.84 1008.04 1008.24 1008.40 1008.52 1008.72 1008.84 1008.92 1009.04 1009.08 1009.20 1009.36 1009.52 1009.60 1009.80 1009.92 1010.04 1010.08 1010.16 1010.24 1010.36 1010.48 1010.60 1010.72 1010.92 1011.08 1011.20 1011.36 1011.48 1011.60 1011.72 1011.80 1011.92 1011.92 1011.96 1012.04 1012.04 1012.08 1012.16 1012.24 1012.28 1012.36
1002.64 1002.84 1003.08 1003.36 1003.52 1003.72 1003.96 1004.08 1004.28 1004.40 1004.60 1004.80 1005.04 1005.20 1005.36 1005.52 1005.64 1005.80 1005.96 1006.24 1006.40 1006.64 1006.84 1006.96 1007.16 1007.28 1007.48 1007.60 1007.80 1007.96 1008.24 1008.40 1008.48 1008.60 1008.64 1008.80 1008.92 1009.04 1009.08 1009.28 1009.40 1009.52 1009.60 1009.72 1009.80 1009.92 1010.04 1010.16 1010.28 1010.40 1010.60 1010.80 1010.92 1011.04 1011.16 1011.28 1011.40 1011.48 1011.60 1011.64 1011.80 1011.84 1011.84 1011.92 1011.92 1011.96 1012.04 1012.08 1012.16
1002.48 1002.64 1002.84 1003.04 1003.20 1003.48 1003.72 1003.92 1004.04 1004.24 1004.40 1004.52 1004.80 1004.96 1005.08 1005.20 1005.40 1005.60 1005.80 1005.96 1006.24 1006.40 1006.60 1006.80 1006.96 1007.08 1007.20 1007.36 1007.52 1007.72 1007.92 1008.08 1008.24 1008.36 1008.48 1008.52 1008.64 1008.80 1008.92 1009.08 1009.20 1009.28 1009.36 1009.48 1009.60 1009.72 1009.92 1010.08 1010.24 1010.36 1010.48 1010.60 1010.72 1010.80 1010.92 1011.04 1011.16 1011.20 1011.36 1011.48 1011.60 1011.64 1011.72 1011.80 1011.84 1011.84 1011.92 1011.92 1011.96
1002.28 1002.48 1002.60 1002.84 1003.04 1003.20 1003.40 1003.60 1003.84 1004.04 1004.16 1004.36 1004.52 1004.72 1004.92 1005.04 1005.20 1005.48 1005.64 1005.80 1005.96 1006.24 1006.40 1006.52 1006.72 1006.92 1007.04 1007.16 1007.28 1007.48 1007.64 1007.80 1007.96 1008.08 1008.24 1008.28 1008.40 1008.52 1008.72 1008.92 1009.04 1009.08 1009.16 1009.28 1009.40 1009.52 1009.64 1009.84 1010.04 1010.08 1010.24 1010.36 1010.48 1010.60 1010.72 1010.80 1010.92 1011.04 1011.16 1011.28 1011.40 1011.52 1011.64 1011.72 1011.80 1011.80 1011.80 1011.84 1011.96
1002.08 1002.28 1002.40 1002.52 1002.80 1003.04 1003.20 1003.40 1003.60 1003.80 1003.96 1004.08 1004.28 1004.52 1004.72 1004.84 1005.04 1005.20 1005.40 1005.60 1005.80 1005.96 1006.16 1006.36 1006.48 1006.64 1006.84 1006.96 1007.08 1007.20 1007.40 1007.60 1007.72 1007.84 1008.04 1008.24 1008.28 1008.40 1008.60 1008.72 1008.84 1008.92 1008.96 1009.04 1009.16 1009.28 1009.40 1009.52 1009.72 1009.84 1009.96 1010.16 1010.28 1010.48 1010.52 1010.64 1010.72 1010.80 1010.96 1011.08 1011.20 1011.28 1011.48 1011.60 1011.64 1011.64 1011.72 1011.84 1011.96
1001.84 1002.04 1002.24 1002.36 1002.52 1002.72 1002.96 1003.16 1003.40 1003.60 1003.80 1003.96 1004.08 1004.28 1004.48 1004.64 1004.84 1005.04 1005.20 1005.40 1005.60 1005.72 1005.92 1006.08 1006.28 1006.40 1006.60 1006.80 1006.92 1007.08 1007.28 1007.40 1007.52 1007.64 1007.84 1007.96 1008.08 1008.24 1008.36 1008.48 1008.60 1008.60 1008.64 1008.80 1008.84 1008.92 1009.08 1009.20 1009.36 1009.52 1009.64 1009.84 1009.96 1010.16 1010.36 1010.40 1010.48 1010.60 1010.72 1010.84 1010.92 1011.04 1011.20 1011.40 1011.48 1011.60 1011.72 1011.84 1011.92
1001.60 1001.80 1001.96 1002.08 1002.28 1002.52 1002.72 1002.96 1003.16 1003.36 1003.52 1003.64 1003.92 1004.08 1004.28 1004.48 1004.60 1004.80 1005.04 1005.20 1005.36 1005.52 1005.72 1005.92 1006.04 1006.24 1006.40 1006.60 1006.80 1006.92 1007.04 1007.20 1007.36 1007.48 1007.60 1007.80 1007.92 1008.04 1008.08 1008.24 1008.28 1008.36 1008.40 1008.48 1008.52 1008.64 1008.72 1008.92 1009.04 1009.16 1009.28 1009.48 1009.64 1009.80 1009.96 1010.08 1010.24 1010.36 1010.52 1010.64 1010.72 1010.80 1010.96 1011.08 1011.20 1011.40 1011.64 1011.80 1011.92
1001.36 1001.52 1001.64 1001.84 1002.04 1002.24 1002.40 1002.64 1002.84 1003.08 1003.28 1003.48 1003.64 1003.84 1004.04 1004.24 1004.40 1004.60 1004.80 1004.96 1005.16 1005.36 1005.48 1005.64 1005.84 1006.04 1006.28 1006.48 1006.60 1006.72 1006.84 1007.04 1007.16 1007.28 1007.40 1007.60 1007.64 1007.80 1007.84 1007.96 1008.04 1008.16 1008.24 1008.36 1008.40 1008.52 1008.60 1008.72 1008.84 1008.96 1009.04 1009.16 1009.28 1009.48 1009.60 1009.80 1009.92 1010.04 1010.16 1010.36 1010.40 1010.52 1010.80 1010.96 1011.16 1011.40 1011.60 1011.80 1011.92
1001.04 1001.28 1001.48 1001.60 1001.80 1001.92 1002.08 1002.28 1002.52 1002.80 1002.96 1003.16 1003.36 1003.52 1003.80 1003.96 1004.24 1004.40 1004.52 1004.64 1004.84 1005.04 1005.20 1005.36 1005.60 1005.84 1006.08 1006.24 1006.40 1006.64 1006.80 1006.84 1006.96 1007.04 1007.16 1007.20 1007.40 1007.48 1007.60 1007.80 1007.92 1008.04 1008.16 1008.28 1008.36 1008.40 1008.52 1008.72 1008.72 1008.84 1008.96 1009.04 1009.08 1009.20 1009.36 1009.48 1009.60 1009.80 1010.04 1010.24 1010.40 1010.60 1010.80 1011.08 1011.28 1011.52 1011.72 1011.92 1012.04
1000.80 1000.96 1001.16 1001.36 1001.52 1001.64 1001.80 1001.92 1002.16 1002.40 1002.72 1002.92 1003.08 1003.36 1003.52 1003.72 1003.92 1004.08 1004.24 1004.40 1004.60 1004.80 1004.96 1005.16 1005.40 1005.64 1005.84 1005.96 1006.24 1006.48 1006.60 1006.64 1006.80 1006.84 1006.96 1007.04 1007.28 1007.36 1007.36 1007.60 1007.72 1007.92 1008.16 1008.28 1008.24 1008.24 1008.28 1008.48 1008.64 1008.80 1008.92 1009.04 1009.08 1009.16 1009.28 1009.40 1009.60 1009.84 1010.08 1010.36 1010.52 1010.84 1011.08 1011.40 1011.64 1011.80 1011.96 1012.08 1012.16
1000.52 1000.72 1000.92 1001.16 1001.28 1001.40 1001.52 1001.64 1001.92 1002.16 1002.36 1002.60 1002.84 1003.04 1003.20 1003.48 1003.60 1003.72 1003.92 1004.16 1004.40 1004.60 1004.84 1005.04 1005.20 1005.40 1005.60 1005.80 1005.96 1006.24 1006.40 1006.48 1006.60 1006.72 1006.80 1006.80 1006.92 1007.04 1007.16 1007.28 1007.52 1007.92 1008.36 1008.64 1008.60 1008.48 1008.36 1008.28 1008.36 1008.60 1008.80 1008.92 1008.96 1009.08 1009.20 1009.48 1009.64 1009.96 1010.24 1010.52 1010.84 1011.08 1011.36 1011.60 1011.92 1012.04 1012.16 1012.28 1012.40
1000.24 1000.40 1000.64 1000.92 1001.04 1001.20 1001.36 1001.48 1001.64 1001.84 1002.08 1002.28 1002.52 1002.80 1002.96 1003.20 1003.36 1003.52 1003.72 1003.92 1004.16 1004.40 1004.64 1004.84 1005.04 1005.28 1005.48 1005.64 1005.80 1005.96 1006.08 1006.16 1006.28 1006.48 1006.64 1006.72 1006.84 1006.96 1007.08 1007.36 1007.52 1007.96 1008.40 1008.60 1008.64 1008.64 1008.60 1008.40 1008.36 1008.40 1008.60 1008.80 1008.92 1008.96 1009.16 1009.48 1009.72 1010.08 1010.48 1010.84 1011.16 1011.48 1011.72 1012.04 1012.28 1012.40 1012.52 1012.64 1012.64
999.92 1000.16 1000.40 1000.64 1000.80 1000.96 1001.16 1001.28 1001.48 1001.64 1001.84 1002.08 1002.28 1002.52 1002.80 1002.96 1003.20 1003.40 1003.60 1003.72 1003.92 1004.16 1004.40 1004.60 1004.84 1005.04 1005.20 1005.40 1005.60 1005.80 1005.92 1005.96 1006.16 1006.36 1006.48 1006.60 1006.72 1006.92 1007.16 1007.40 1007.80 1008.24 1008.48 1008.48 1008.40 1008.48 1008.48 1008.52 1008.52 1008.52 1008.52 1008.72 1008.92 1009.08 1009.28 1009.60 1009.96 1010.40 1010.84 1011.20 1011.64 1011.96 1012.28 1012.52 1012.80 1012.96 1013.08 1013.08 1012.96
999.64 999.92 1000.16 1000.36 1000.60 1000.80 1000.96 1001.16 1001.28 1001.52 1001.72 1001.92 1002.16 1002.36 1002.52 1002.80 1003.04 1003.20 1003.40 1003.60 1003.80 1004.04 1004.24 1004.40 1004.60 1004.84 1005.04 1005.20 1005.40 1005.60 1005.80 1005.92 1006.08 1006.28 1006.36 1006.52 1006.72 1006.96 1007.28 1007.64 1008.08 1008.48 1008.72 1008.64 1008.60 1008.48 1008.48 1008.52 1008.60 1008.60 1008.60 1008.72 1008.92 1009.16 1009.48 1009.84 1010.28 1010.80 1011.28 1011.80 1012.28 1012.60 1012.92 1013.16 1013.36 1013.48 1013.60 1013.52 1013.48
999.36 999.60 999.92 1000.16 1000.40 1000.64 1000.84 1001.04 1001.20 1001.40 1001.64 1001.92 1002.08 1002.24 1002.48 1002.64 1002.84 1003.04 1003.20 1003.48 1003.72 1003.96 1004.16 1004.36 1004.52 1004.80 1004.96 1005.16 1005.28 1005.48 1005.60 1005.80 1005.96 1006.16 1006.36 1006.60 1006.80 1007.08 1007.48 1007.96 1008.36 1008.80 1009.04 1008.96 1008.84 1008.72 1008.60 1008.60 1008.64 1008.64 1008.64 1008.80 1009.04 1009.36 1009.80 1010.16 1010.72 1011.28 1011.84 1012.40 1012.92 1013.20 1013.48 1013.72 1013.92 1014.04 1014.04 1014.04 1013.96
999.08 999.40 999.72 1000.04 1000.28 1000.52 1000.72 1000.92 1001.16 1001.40 1001.64 1001.84 1002.08 1002.28 1002.48 1002.60 1002.72 1002.92 1003.08 1003.36 1003.64 1003.92 1004.08 1004.36 1004.52 1004.72 1004.92 1005.08 1005.20 1005.60 1005.96 1006.24 1006.48 1006.72 1007.04 1007.40 1007.48 1007.64 1008.04 1008.40 1008.84 1009.20 1009.36 1009.20 1009.04 1008.92 1008.80 1008.72 1008.80 1008.80 1008.72 1008.84 1009.16 1009.60 1010.04 1010.52 1011.16 1011.72 1012.36 1012.92 1013.36 1013.64 1013.92 1014.16 1014.28 1014.40 1014.48 1014.52 1014.52
998.92 999.20 999.52 999.84 1000.16 1000.40 1000.60 1000.84 1001.16 1001.36 1001.60 1001.80 1002.04 1002.28 1002.40 1002.52 1002.72 1002.84 1003.04 1003.28 1003.48 1003.72 1004.04 1004.28 1004.52 1004.72 1005.04 1005.48 1005.92 1006.60 1007.20 1007.48 1007.48 1007.64 1007.96 1008.40 1008.60 1008.60 1008.72 1009.04 1009.52 1009.64 1009.60 1009.40 1009.20 1009.08 1008.96 1008.92 1008.96 1008.92 1008.92 1009.04 1009.36 1009.80 1010.24 1010.80 1011.40 1012.08 1012.72 1013.28 1013.72 1014.08 1014.36 1014.52 1014.64 1014.84 1014.96 1015.16 1015.16
998.72 999.04 999.40 999.80 1000.04 1000.36 1000.60 1000.84 1001.08 1001.36 1001.60 1001.84 1002.08 1002.24 1002.36 1002.48 1002.64 1002.84 1003.04 1003.28 1003.36 1003.60 1004.04 1004.40 1004.84 1005.20 1005.80 1006.40 1007.08 1007.80 1008.28 1008.52 1008.60 1008.64 1008.80 1009.08 1009.36 1009.40 1009.48 1009.64 1009.96 1010.04 1009.84 1009.64 1009.48 1009.28 1009.08 1009.04 1009.16 1009.16 1009.16 1009.20 1009.48 1009.84 1010.36 1010.92 1011.64 1012.36 1012.96 1013.52 1014.04 1014.36 1014.64 1014.92 1015.08 1015.36 1015.48 1015.60 1015.52
998.60 998.92 999.20 999.60 999.92 1000.24 1000.48 1000.80 1001.04 1001.20 1001.48 1001.80 1002.04 1002.24 1002.36 1002.48 1002.72 1002.92 1003.16 1003.40 1003.80 1004.24 1004.84 1005.48 1006.04 1006.40 1006.72 1007.08 1007.72 1008.52 1009.16 1009.28 1009.40 1009.48 1009.64 1009.84 1010.04 1010.08 1010.08 1010.16 1010.28 1010.28 1010.16 1009.96 1009.72 1009.48 1009.36 1009.20 1009.28 1009.28 1009.36 1009.48 1009.60 1009.92 1010.40 1011.04 1011.84 1012.60 1013.28 1013.80 1014.24 1014.60 1014.92 1015.20 1015.48 1015.64 1015.84 1015.92 1015.84
998.48 998.72 999.04 999.40 999.72 999.96 1000.28 1000.64 1000.92 1001.16 1001.36 1001.64 1001.84 1002.04 1002.28 1002.60 1002.92 1003.28 1003.72 1004.16 1004.64 1005.28 1005.92 1006.36 1006.72 1007.04 1007.40 1007.72 1008.36 1009.04 1009.48 1009.72 1009.96 1010.24 1010.36 1010.40 1010.48 1010.52 1010.52 1010.60 1010.60 1010.64 1010.52 1010.28 1010.04 1009.80 1009.60 1009.48 1009.40 1009.40 1009.48 1009.60 1009.80 1010.04 1010.52 1011.20 1012.08 1012.92 1013.60 1014.08 1014.48 1014.80 1015.16 1015.52 1015.80 1015.96 1016.08 1016.24 1016.24
Thickness
5622 5621 5620 5618 5617 5616 5614 5613 5612 5611 5610 5609 5607 5605 5603 5601 5600 5599 5599 5599 5600 5600 5600 5599 5598 5597 5597 5597 5598 5598 5598 5600 5601 5601 5601 5601 5601 5600 5598 5597 5597 5596 5595 5595 5594 5593 5593 5593 5593 5592 5592 5592 5592 5592 5592 5592 5591 5591 5592 5591 5591 5591 5590 5590 5590 5589 5589 5589 5589
5622 5621 5619 5618 5616 5615 5614 5613 5611 5610 5610 5609 5608 5605 5603 5601 5600 5599 5599 5599 5600 5601 5600 5598 5598 5598 5597 5598 5598 5599 5599 5600 5601 5601 5601 5601 5600 5600 5599 5597 5597 5596 5596 5595 5595 5593 5593 5593 5593 5592 5592 5592 5591 5591 5592 5591 5591 5591 5590 5591 5591 5590 5589 5589 5589 5589 5589 5588 5588
5622 5621 5619 5618 5616 5615 5614 5612 5611 5610 5609 5608 5607 5606 5603 5602 5601 5599 5599 5599 5600 5601 5600 5598 5598 5599 5599 5599 5599 5600 5601 5601 5602 5601 5601 5600 5600 5600 5599 5598 5597 5597 5596 5595 5595 5594 5593 5593 5592 5592 5592 5591 5591 5591 5590 5591 5590 5590 5589 5589 5589 5589 5588 5588 5588 5588 5588 5587 5588
5622 5620 5619 5617 5616 5615 5614 5613 5611 5609 5608 5607 5606 5605 5603 5602 5601 5600 5599 5599 5599 5600 5599 5599 5598 5598 5599 5599 5600 5601 5601 5602 5601 5601 5600 5600 5599 5599 5600 5599 5598 5597 5596 5596 5596 5595 5594 5593 5592 5591 5591 5591 5590 5590 5590 5590 5590 5589 5589 5589 5588 5588 5587 5587 5587 5587 5587 5587 5587
5623 5621 5619 5618 5617 5616 5614 5612 5611 5609 5608 5606 5605 5604 5603 5602 5601 5599 5599 5598 5599 5599 5598 5598 5598 5598 5598 5599 5600 5601 5601 5601 5601 5601 5600 5600 5600 5600 5599 5599 5598 5598 5597 5596 5595 5595 5594 5593 5592 5592 5591 5591 5591 5590 5590 5590 5589 5588 5588 5588 5587 5587 5587 5587 5586 5586 5586 5586 5586
5623 5621 5620 5618 5616 5615 5613 5611 5610 5608 5607 5606 5605 5604 5603 5601 5601 5600 5599 5599 5599 5598 5598 5597 5597 5597 5597 5597 5598 5599 5600 5600 5600 5600 5600 5600 5600 5600 5600 5599 5599 5598 5597 5597 5596 5595 5594 5593 5592 5591 5591 5590 5590 5591 5590 5589 5589 5588 5587 5587 5586 5586 5586 5586 5586 5586 5585 5585 5585
5623 5622 5620 5618 5616 5615 5613 5611 5610 5608 5607 5606 5605 5604 5603 5602 5601 5600 5600 5599 5599 5598 5596 5596 5596 5596 5596 5595 5596 5597 5598 5599 5598 5598 5599 5599 5599 5600 5600 5599 5599 5598 5597 5596 5595 5594 5593 5592 5592 5591 5590 5590 5590 5590 5590 5589 5588 5587 5587 5586 5586 5585 5585 5585 5585 5585 5585 5584 5584
5623 5621 5620 5618 5616 5615 5613 5611 5610 5608 5607 5606 5605 5605 5603 5603 5601 5601 5600 5599 5598 5597 5596 5595 5595 5595 5595 5595 5595 5596 5597 5597 5596 5596 5596 5597 5598 5599 5599 5599 5599 5599 5598 5596 5595 5594 5592 5592 5591 5591 5590 5590 5590 5589 5589 5589 5588 5587 5585 5586 5585 5585 5584 5585 5584 5584 5584 5584 5584
5623 5621 5619 5618 5617 5615 5614 5612 5610 5609 5607 5606 5605 5604 5603 5602 5601 5601 5599 5599 5598 5597 5596 5595 5595 5594 5594 5594 5594 5595 5595 5596 5594 5594 5593 5594 5595 5597 5597 5598 5598 5598 5598 5596 5594 5593 5592 5592 5591 5590 5590 5590 5590 5589 5589 5588 5587 5586 5586 5585 5585 5584 5584 5584 5584 5584 5584 5584 5584
5624 5621 5620 5618 5616 5615 5614 5612 5610 5609 5608 5607 5605 5604 5602 5602 5601 5600 5599 5599 5597 5596 5595 5594 5594 5593 5594 5593 5594 5594 5593 5593 5592 5592 5591 5592 5593 5594 5595 5596 5597 5597 5597 5596 5595 5593 5592 5591 5591 5590 5590 5590 5590 5588 5588 5587 5586 5586 5585 5585 5584 5583 5583 5583 5583 5584 5584 5584 5584
5624 5622 5620 5618 5616 5615 5613 5612 5610 5609 5607 5606 5605 5604 5602 5601 5601 5600 5599 5598 5596 5595 5594 5593 5593 5593 5592 5592 5592 5592 5592 5591 5591 5591 5590 5590 5591 5593 5593 5594 5595 5596 5595 5596 5595 5593 5591 5591 5589 5589 5589 5589 5588 5588 5587 5586 5585 5585 5584 5584 5583 5582 5582 5582 5583 5583 5583 5583 5584
5624 5623 5621 5619 5617 5615 5614 5612 5610 5609 5607 5606 5605 5604 5603 5602 5600 5599 5597 5596 5595 5595 5594 5593 5592 5592 5591 5592 5591 5591 5590 5590 5590 5590 5590 5590 5590 5591 5591 5592 5593 5594 5594 5595 5594 5592 5590 5589 5588 5588 5587 5587 5587 5586 5586 5585 5584 5584 5584 5583 5583 5582 5582 5581 5582 5582 5582 5583 5583
5624 5622 5621 5619 5617 5616 5614 5613 5611 5610 5608 5607 5605 5604 5602 5601 5600 5599 5597 5596 5595 5594 5593 5593 5592 5592 5591 5591 5591 5590 5590 5589 5589 5589 5590 5589 5589 5589 5590 5590 5591 5591 5592 5593 5593 5591 5589 5588 5587 5586 5586 5586 5585 5586 5585 5584 5583 5583 5582 5582 5582 5581 5581 5582 5582 5582 5582 5582 5583
5625 5623 5621 5620 5618 5616 5615 5614 5612 5610 5609 5608 5606 5604 5603 5601 5599 5598 5597 5596 5595 5594 5594 5593 5592 5592 5592 5592 5592 5591 5590 5589 5589 5589 5589 5589 5588 5588 5588 5588 5588 5589 5590 5591 5591 5590 5589 5588 5586 5585 5585 5585 5584 5584 5584 5583 5583 5582 5582 5581 5581 5582 5581 5581 5582 5581 5581 5582 5582
5625 5624 5622 5620 5618 5617 5615 5614 5613 5611 5610 5608 5607 5605 5604 5602 5600 5599 5598 5597 5596 5595 5594 5593 5593 5592 5593 5592 5592 5592 5591 5590 5589 5589 5589 5589 5588 5587 5587 5586 5586 5587 5587 5588 5589 5589 5589 5588 5587 5586 5584 5584 5583 5583 5583 5582 5582 5582 5581 5581 5581 5581 5581 5582 5581 5581 5581 5581 5582
5626 5624 5622 5620 5619 5618 5616 5615 5614 5612 5611 5609 5608 5606 5605 5603 5601 5599 5599 5598 5596 5596 5595 5595 5595 5593 5593 5592 5593 5592 5592 5591 5590 5590 5589 5589 5588 5588 5587 5586 5585 5585 5586 5586 5586 5587 5587 5587 5586 5585 5584 5583 5582 5582 5582 5582 5581 5581 5581 5581 5581 5581 5581 5582 5582 5581 5581 5582 5582
5626 5625 5624 5622 5620 5618 5617 5616 5615 5613 5612 5610 5609 5607 5606 5604 5603 5601 5599 5599 5598 5597 5597 5596 5595 5595 5594 5593 5593 5592 5592 5592 5591 5590 5590 5589 5589 5588 5587 5586 5586 5585 5585 5585 5585 5586 5586 5585 5585 5584 5584 5582 5582 5581 5581 5581 5581 5581 5581 5581 5581 5582 5582 5582 5582 5582 5581 5582 5582
5628 5626 5624 5623 5622 5620 5618 5617 5616 5615 5613 5611 5609 5608 5607 5606 5604 5603 5601 5600 5599 5599 5598 5597 5596 5596 5595 5594 5593 5593 5592 5592 5591 5591 5590 5590 5589 5588 5587 5587 5587 5586 5586 5586 5586 5585 5585 5585 5584 5584 5583 5583 5582 5582 5582 5582 5582 5581 5581 5581 5581 5582 5582 5582 5582 5582 5582 5581 5582
5629 5627 5626 5624 5622 5621 5619 5617 5617 5616 5614 5612 5611 5609 5609 5607 5606 5604 5603 5601 5600 5600 5599 5598 5597 5597 5595 5595 5594 5593 5592 5592 5592 5591 5591 5590 5589 5588 5588 5588 5587 5587 5587 5587 5586 5586 5586 5585 5585 5584 5583 5582 5582 5582 5583 5583 5582 5582 5582 5582 5582 5582 5582 5582 5582 5582 5582 5582 5582
5630 5628 5627 5625 5624 5622 5620 5619 5618 5617 5616 5614 5612 5611 5610 5609 5608 5606 5605 5603 5602 5601 5600 5599 5599 5598 5597 5596 5595 5594 5593 5592 5592 5592 5591 5590 5589 5589 5589 5588 5587 5587 5587 5587 5586 5586 5586 5585 5585 5584 5584 5583 5583 5583 5583 5583 5583 5583 5582 5582 5582 5582 5582 5582 5582 5583 5582 5582 5582
5631 5630 5628 5626 5625 5623 5621 5621 5619 5619 5617 5615 5614 5613 5611 5610 5609 5608 5607 5605 5604 5603 5602 5601 5600 5600 5598 5597 5596 5595 5594 5593 5592 5592 5591 5591 5590 5589 5589 5588 5588 5587 5587 5587 5586 5586 5586 5585 5585 5584 5584 5584 5583 5583 5583 5583 5582 5582 5582 5582 5582 5582 5582 5583 5583 5583 5583 5582 5582
5632 5631 5629 5627 5625 5624 5623 5621 5621 5620 5619 5617 5616 5615 5613 5612 5612 5610 5609 5607 5606 5605 5603 5603 5602 5601 5600 5599 5597 5596 5595 5594 5593 5592 5592 5591 5590 5590 5590 5589 5588 5588 5587 5587 5587 5586 5586 5586 5586 5585 5585 5584 5584 5583 5583 5582 5582 5581 5581 5581 5582 5581 5582 5582 5583 5582 5582 5582 5581
5633 5631 5630 5628 5627 5625 5624 5623 5622 5621 5620 5619 5617 5616 5615 5614 5613 5612 5610 5608 5607 5606 5605 5604 5603 5602 5601 5600 5599 5597 5596 5595 5594 5593 5593 5592 5591 5591 5591 5590 5589 5588 5588 5588 5588 5587 5587 5586 5585 5585 5585 5584 5584 5584 5583 5583 5582 5581 5581 5581 5581 5581 5581 5582 5582 5582 5582 5581 5581
5634 5632 5631 5629 5628 5627 5625 5624 5623 5622 5621 5620 5619 5617 5616 5616 5614 5613 5612 5610 5609 5607 5606 5606 5604 5603 5602 5601 5600 5599 5597 5596 5596 5595 5594 5594 5593 5592 5591 5590 5590 5589 5589 5589 5588 5587 5586 5586 5585 5585 5585 5584 5584 5584 5584 5583 5582 5582 5581 5581 5581 5581 5581 5581 5581 5581 5580 5580 5579
5634 5633 5632 5631 5629 5628 5626 5625 5624 5623 5622 5621 5620 5619 5618 5616 5615 5614 5613 5611 5610 5609 5608 5606 5605 5604 5603 5602 5601 5600 5599 5598 5597 5596 5596 5595 5594 5593 5592 5591 5591 5590 5590 5589 5588 5588 5587 5587 5586 5586 5585 5584 5584 5584 5583 5583 5582 5582 5581 5581 5580 5580 5580 5580 5579 5579 5579 5578 5577
5635 5634 5633 5632 5631 5629 5627 5626 5625 5624 5623 5622 5621 5620 5619 5617 5616 5615 5613 5613 5611 5610 5609 5607 5606 5605 5604 5603 5602 5601 5600 5599 5599 5597 5596 5595 5595 5594 5593 5592 5592 5591 5591 5591 5590 5589 5588 5588 5587 5587 5585 5585 5584 5583 5582 5582 5582 5581 5581 5580 5580 5579 5578 5578 5577 5577 5576 5576 5575
5636 5635 5634 5633 5632 5630 5629 5627 5626 5625 5624 5623 5622 5620 5619 5618 5617 5616 5615 5613 5612 5610 5609 5608 5607 5606 5604 5604 5603 5601 5600 5600 5599 5599 5598 5597 5595 5595 5594 5594 5594 5593 5593 5593 5592 5592 5591 5589 5589 5588 5587 5586 5585 5583 5583 5582 5582 5581 5580 5580 5579 5578 5578 5577 5576 5575 5574 5573 5572
5637 5636 5635 5634 5633 5631 5630 5628 5627 5626 5625 5623 5622 5621 5620 5619 5617 5616 5615 5614 5612 5611 5610 5609 5607 5607 5605 5604 5603 5602 5601 5601 5600 5599 5598 5598 5597 5596 5596 5595 5595 5595 5594 5594 5593 5593 5592 5591 5590 5589 5588 5587 5586 5585 5584 5582 5581 5580 5580 5579 5578 5578 5577 5576 5575 5574 5572 5571 5570
5638 5637 5636 5635 5634 5633 5632 5630 5628 5627 5626 5625 5623 5622 5620 5619 5618 5616 5615 5614 5613 5612 5611 5609 5609 5607 5605 5604 5603 5602 5601 5601 5600 5599 5599 5598 5597 5597 5596 5596 5595 5594 5594 5593 5593 5592 5592 5591 5590 5590 5589 5588 5587 5585 5585 5583 5582 5581 5580 5579 5579 5578 5576 5575 5574 5572 5571 5569 5569
5639 5638 5636 5636 5635 5634 5633 5632 5630 5629 5627 5625 5624 5622 5621 5619 5618 5617 5616 5614 5613 5612 5612 5610 5609 5607 5605 5604 5603 5602 5601 5601 5600 5600 5598 5597 5596 5596 5595 5595 5594 5593 5592 5592 5592 5591 5590 5589 5588 5587 5587 5587 5586 5585 5585 5584 5583 5581 5580 5579 5578 5576 5574 5572 5570 5569 5567 5567 5566
5640 5639 5637 5636 5636 5635 5635 5633 5632 5630 5628 5627 5625 5623 5622 5620 5619 5618 5617 5615 5614 5613 5612 5610 5608 5607 5605 5605 5603 5602 5600 5600 5600 5599 5598 5597 5595 5595 5595 5594 5593 5592 5590 5589 5590 5591 5590 5589 5587 5586 5585 5585 5585 5584 5584 5583 5582 5580 5578 5576 5574 5572 5570 5568 5566 5565 5564 5564 5562
5641 5640 5639 5637 5637 5636 5635 5634 5633 5631 5629 5628 5626 5624 5623 5622 5620 5619 5618 5616 5615 5613 5610 5609 5608 5607 5605 5604 5603 5602 5601 5599 5598 5598 5597 5596 5595 5595 5594 5593 5593 5590 5586 5585 5585 5586 5587 5589 5588 5587 5585 5584 5583 5583 5583 5583 5581 5577 5575 5574 5573 5570 5567 5564 5563 5561 5560 5559 5558
5643 5641 5640 5639 5637 5637 5636 5635 5634 5632 5631 5629 5627 5625 5624 5622 5620 5619 5618 5617 5615 5613 5611 5609 5608 5607 5605 5603 5602 5601 5600 5599 5598 5597 5597 5596 5595 5594 5594 5593 5591 5588 5584 5583 5583 5582 5583 5585 5585 5585 5584 5583 5582 5582 5582 5581 5578 5575 5571 5569 5567 5564 5561 5559 5558 5556 5555 5554 5554
5644 5642 5641 5639 5638 5637 5636 5635 5634 5632 5631 5629 5628 5626 5625 5622 5621 5620 5618 5617 5616 5614 5612 5610 5608 5607 5605 5604 5602 5601 5600 5599 5598 5597 5596 5595 5595 5594 5593 5591 5589 5585 5583 5583 5583 5582 5582 5581 5582 5582 5582 5581 5581 5581 5579 5576 5573 5570 5566 5563 5560 5558 5555 5553 5551 5550 5548 5548 5548
5645 5644 5641 5640 5638 5637 5636 5635 5633 5632 5631 5629 5627 5626 5625 5622 5621 5620 5618 5617 5616 5614 5612 5611 5609 5607 5606 5604 5603 5601 5600 5599 5597 5597 5596 5595 5594 5593 5591 5588 5585 5581 5579 5580 5580 5580 5580 5579 5580 5580 5580 5579 5578 5576 5573 5570 5567 5564 5560 5557 5553 5551 5548 5546 5544 5542 5542 5542 5543
5646 5644 5642 5641 5638 5637 5635 5634 5633 5631 5629 5628 5627 5625 5623 5622 5620 5619 5618 5616 5615 5613 5611 5610 5608 5606 5604 5603 5602 5600 5599 5599 5597 5596 5595 5594 5593 5591 5588 5584 5581 5578 5575 5575 5575 5576 5577 5578 5577 5577 5577 5577 5575 5572 5569 5566 5562 5558 5554 5549 5546 5543 5541 5539 5538 5536 5536 5536 5536
5646 5644 5642 5640 5638 5636 5635 5633 5631 5629 5628 5626 5624 5623 5621 5620 5619 5618 5616 5615 5613 5611 5610 5609 5607 5605 5604 5603 5602 5599 5596 5595 5593 5591 5588 5586 5586 5584 5581 5579 5575 5571 5570 5571 5572 5574 5575 5575 5575 5575 5575 5573 5571 5568 5564 5560 5556 5552 5547 5543 5539 5537 5535 5533 5531 5531 5530 5529 5529
5646 5644 5642 5639 5637 5635 5633 5632 5630 5628 5626 5623 5622 5620 5619 5618 5617 5616 5615 5614 5612 5610 5609 5607 5606 5605 5603 5600 5596 5591 5587 5584 5583 5582 5579 5576 5575 5574 5574 5572 5568 5567 5567 5569 5570 5572 5572 5573 5572 5572 5571 5570 5567 5563 5560 5556 5551 5546 5542 5537 5534 5531 5529 5528 5526 5524 5523 5521 5521
5646 5644 5641 5639 5636 5634 5632 5629 5628 5626 5624 5621 5619 5617 5617 5616 5615 5614 5614 5613 5612 5610 5608 5605 5602 5599 5596 5591 5586 5580 5575 5574 5573 5572 5570 5568 5566 5565 5566 5565 5563 5562 5563 5564 5566 5568 5569 5569 5568 5568 5567 5566 5564 5560 5556 5552 5546 5541 5536 5532 5529 5526 5524 5522 5520 5518 5516 5515 5516
5645 5643 5640 5638 5635 5633 5630 5628 5626 5624 5621 5620 5618 5616 5615 5614 5613 5612 5611 5610 5608 5605 5600 5596 5592 5588 5586 5584 5579 5572 5567 5565 5564 5563 5562 5560 5559 5558 5558 5558 5558 5557 5558 5560 5562 5564 5565 5566 5566 5565 5564 5562 5561 5558 5554 5550 5544 5537 5532 5528 5525 5523 5519 5517 5514 5513 5512 5511 5512
5644 5642 5640 5638 5636 5633 5630 5628 5625 5623 5621 5619 5617 5615 5614 5612 5610 5608 5606 5603 5599 5594 5589 5586 5584 5581 5579 5576 5571 5566 5563 5560 5557 5556 5554 5553 5553 5553 5553 5552 5552 5553 5554 5555 5557 5559 5561 5563 5563 5563 5562 5561 5560 5558 5555 5549 5542 5535 5529 5525 5522 5519 5516 5512 5511 5509 5508 5507 5506